BAF67 EBCI-EHRD

Flight info

Callsign BAF67
Flight time 0h 29m
Altitude 23000
Route CIV7X CIV DCT HELEN HELEN4R
Aircraft A400/H-SDE3FGHIRWY/L4T

Departure

Time 2026-05-07 23:19
Airport Brussels South Charleroi Airport (EBCI)

Arrival

Time 2026-05-07 23:48
Airport Rotterdam The Hague Airport (EHRD)
Time Latitude Longitude Altitude Speed Heading
2026-05-07 23:08 50.46010 4.46092 607 ft 0 kts 288°
2026-05-07 23:15 50.46013 4.46082 607 ft 4 kts 288°
2026-05-07 23:15 50.46017 4.46019 617 ft 8 kts 265°
2026-05-07 23:15 50.46003 4.45903 620 ft 13 kts 254°
2026-05-07 23:15 50.45992 4.45742 602 ft 16 kts 258°
2026-05-07 23:16 50.45948 4.45571 602 ft 17 kts 245°
2026-05-07 23:16 50.45896 4.45388 602 ft 19 kts 246°
2026-05-07 23:16 50.45840 4.45194 612 ft 20 kts 245°
2026-05-07 23:16 50.45780 4.44991 617 ft 21 kts 245°
2026-05-07 23:17 50.45722 4.44792 617 ft 20 kts 245°
2026-05-07 23:17 50.45662 4.44588 608 ft 21 kts 245°
2026-05-07 23:17 50.45602 4.44378 617 ft 22 kts 246°
2026-05-07 23:17 50.45538 4.44159 613 ft 23 kts 245°
2026-05-07 23:18 50.45470 4.43928 613 ft 23 kts 246°
2026-05-07 23:18 50.45451 4.43746 618 ft 16 kts 309°
2026-05-07 23:18 50.45541 4.43766 613 ft 16 kts 63°
2026-05-07 23:18 50.45618 4.44028 603 ft 63 kts 65°
2026-05-07 23:19 50.45972 4.45242 673 ft 170 kts 66°
2026-05-07 23:19 50.46520 4.47143 1230 ft 205 kts 66°
2026-05-07 23:19 50.47365 4.48995 2310 ft 217 kts 36°
2026-05-07 23:19 50.48817 4.49570 3738 ft 227 kts 355°
2026-05-07 23:20 50.50245 4.48506 5296 ft 234 kts 314°
2026-05-07 23:20 50.50944 4.46248 6897 ft 234 kts 275°
2026-05-07 23:20 50.50610 4.43784 8415 ft 237 kts 239°
2026-05-07 23:20 50.49391 4.42020 9424 ft 245 kts 205°
2026-05-07 23:21 50.47711 4.41580 9885 ft 251 kts 179°
2026-05-07 23:21 50.45962 4.41759 9994 ft 252 kts 176°
2026-05-07 23:21 50.44210 4.41937 9995 ft 252 kts 177°
2026-05-07 23:21 50.42458 4.41954 9992 ft 252 kts 187°
2026-05-07 23:22 50.40769 4.41223 10041 ft 255 kts 207°
2026-05-07 23:22 50.39397 4.39384 10667 ft 270 kts 235°
2026-05-07 23:22 50.38798 4.36650 12029 ft 265 kts 266°
2026-05-07 23:22 50.39136 4.33869 13655 ft 261 kts 290°
2026-05-07 23:23 50.39949 4.31320 15067 ft 263 kts 297°
2026-05-07 23:23 50.40858 4.28856 16430 ft 267 kts 298°
2026-05-07 23:23 50.41809 4.26317 17849 ft 272 kts 298°
2026-05-07 23:23 50.42768 4.23735 19194 ft 277 kts 298°
2026-05-07 23:24 50.43742 4.21085 20505 ft 282 kts 298°
2026-05-07 23:24 50.44725 4.18394 21792 ft 288 kts 298°
2026-05-07 23:24 50.45736 4.15611 22597 ft 296 kts 297°
2026-05-07 23:24 50.46762 4.12779 22950 ft 300 kts 297°
2026-05-07 23:25 50.47796 4.09926 22984 ft 300 kts 297°
2026-05-07 23:25 50.48827 4.07077 23084 ft 301 kts 297°
2026-05-07 23:25 50.49862 4.04217 23090 ft 301 kts 297°
2026-05-07 23:25 50.50886 4.01385 23089 ft 301 kts 297°
2026-05-07 23:26 50.51919 3.98526 23085 ft 301 kts 297°
2026-05-07 23:26 50.52953 3.95661 23086 ft 301 kts 297°
2026-05-07 23:26 50.53986 3.92793 23086 ft 301 kts 297°
2026-05-07 23:26 50.55020 3.89921 23086 ft 301 kts 297°
2026-05-07 23:27 50.57641 3.84826 23082 ft 306 kts 325°
2026-05-07 23:27 50.59603 3.83613 23088 ft 311 kts 348°
2026-05-07 23:27 50.61778 3.83429 23085 ft 315 kts 358°
2026-05-07 23:28 50.63970 3.83543 23086 ft 315 kts
2026-05-07 23:28 50.66167 3.83700 23086 ft 316 kts
2026-05-07 23:28 50.68362 3.83851 23086 ft 316 kts 360°
2026-05-07 23:28 50.70564 3.83990 23086 ft 316 kts 360°
2026-05-07 23:29 50.72759 3.84122 23086 ft 316 kts 360°
2026-05-07 23:29 50.74957 3.84249 23086 ft 316 kts 360°
2026-05-07 23:29 50.77153 3.84374 23086 ft 316 kts 359°
2026-05-07 23:29 50.79319 3.84495 23067 ft 314 kts 359°
2026-05-07 23:30 50.81483 3.84617 22675 ft 310 kts 359°
2026-05-07 23:30 50.83650 3.84738 22203 ft 310 kts 359°
2026-05-07 23:30 50.85812 3.84858 21764 ft 309 kts 359°
2026-05-07 23:30 50.87935 3.84976 21351 ft 308 kts 360°
2026-05-07 23:31 50.90074 3.85096 20947 ft 306 kts 360°
2026-05-07 23:31 50.92195 3.85214 20552 ft 304 kts 360°
2026-05-07 23:31 50.94307 3.85331 20160 ft 302 kts 360°
2026-05-07 23:31 50.96404 3.85448 19774 ft 300 kts 360°
2026-05-07 23:32 50.98487 3.85565 19397 ft 299 kts 360°
2026-05-07 23:32 51.00561 3.85681 19023 ft 297 kts
2026-05-07 23:32 51.02627 3.85796 18658 ft 296 kts
2026-05-07 23:32 51.04676 3.85911 18280 ft 294 kts
2026-05-07 23:33 51.06692 3.86024 17870 ft 292 kts
2026-05-07 23:33 51.08725 3.86138 17469 ft 291 kts
2026-05-07 23:33 51.10743 3.86251 17065 ft 289 kts
2026-05-07 23:33 51.12750 3.86364 16678 ft 287 kts
2026-05-07 23:34 51.14745 3.86476 16297 ft 286 kts
2026-05-07 23:34 51.16732 3.86588 15917 ft 284 kts
2026-05-07 23:34 51.18684 3.86698 15550 ft 283 kts
2026-05-07 23:34 51.20646 3.86808 15181 ft 281 kts
2026-05-07 23:35 51.22598 3.86916 14813 ft 280 kts 360°
2026-05-07 23:35 51.24537 3.86938 14462 ft 278 kts 358°
2026-05-07 23:35 51.26466 3.86907 14120 ft 276 kts 358°
2026-05-07 23:35 51.28394 3.86864 13770 ft 275 kts 358°
2026-05-07 23:36 51.30302 3.86819 13385 ft 273 kts 358°
2026-05-07 23:36 51.32200 3.86775 13003 ft 272 kts 358°
2026-05-07 23:36 51.34084 3.86731 12628 ft 270 kts 358°
2026-05-07 23:36 51.35960 3.86688 12242 ft 269 kts 358°
2026-05-07 23:37 51.37798 3.86646 11896 ft 267 kts 358°
2026-05-07 23:37 51.39649 3.86623 11532 ft 266 kts
2026-05-07 23:37 51.41476 3.87034 11158 ft 265 kts 15°
2026-05-07 23:37 51.43143 3.88254 10786 ft 264 kts 31°
2026-05-07 23:38 51.44662 3.89899 10434 ft 262 kts 36°
2026-05-07 23:38 51.46133 3.91613 10096 ft 261 kts 36°
2026-05-07 23:38 51.47594 3.93329 9723 ft 259 kts 36°
2026-05-07 23:38 51.49048 3.95031 9358 ft 258 kts 36°
2026-05-07 23:39 51.50478 3.96700 8997 ft 256 kts 36°
2026-05-07 23:39 51.51916 3.98375 8639 ft 255 kts 36°
2026-05-07 23:39 51.53349 4.00044 8287 ft 254 kts 36°
2026-05-07 23:39 51.54774 4.01703 7933 ft 253 kts 36°
2026-05-07 23:40 51.56197 4.03359 7613 ft 252 kts 36°
2026-05-07 23:40 51.57611 4.05006 7321 ft 249 kts 35°
2026-05-07 23:40 51.59015 4.06642 7032 ft 248 kts 35°
2026-05-07 23:40 51.60414 4.08274 6740 ft 247 kts 35°
2026-05-07 23:41 51.61799 4.09891 6490 ft 245 kts 35°
2026-05-07 23:41 51.63176 4.11499 6190 ft 245 kts 35°
2026-05-07 23:41 51.64539 4.13092 5883 ft 244 kts 36°
2026-05-07 23:41 51.65916 4.14702 5627 ft 243 kts 36°
2026-05-07 23:42 51.67281 4.16300 5349 ft 242 kts 36°
2026-05-07 23:42 51.68646 4.17899 5072 ft 242 kts 37°
2026-05-07 23:42 51.70003 4.19490 4820 ft 240 kts 37°
2026-05-07 23:42 51.71337 4.21055 4547 ft 239 kts 37°
2026-05-07 23:43 51.72686 4.22618 4239 ft 238 kts 34°
2026-05-07 23:43 51.74179 4.23748 3906 ft 237 kts 15°
2026-05-07 23:43 51.75813 4.23905 3537 ft 235 kts 355°
2026-05-07 23:43 51.77438 4.23549 3084 ft 235 kts 351°
2026-05-07 23:44 51.79047 4.23095 2633 ft 234 kts 351°
2026-05-07 23:44 51.80646 4.22637 2233 ft 232 kts 351°
2026-05-07 23:44 51.82233 4.22189 2104 ft 231 kts 352°
2026-05-07 23:44 51.83804 4.21754 2099 ft 231 kts 352°
2026-05-07 23:45 51.85400 4.21506 2099 ft 229 kts
2026-05-07 23:45 51.86847 4.22406 2100 ft 224 kts 42°
2026-05-07 23:45 51.87855 4.24303 2104 ft 223 kts 57°
2026-05-07 23:45 51.88704 4.26395 2103 ft 222 kts 59°
2026-05-07 23:46 51.89530 4.28513 2102 ft 222 kts 59°
2026-05-07 23:46 51.90355 4.30628 2071 ft 223 kts 60°
2026-05-07 23:46 51.91136 4.32666 1916 ft 199 kts 60°
2026-05-07 23:46 51.91818 4.34457 1751 ft 174 kts 60°
2026-05-07 23:47 51.92450 4.36044 1513 ft 162 kts 59°
2026-05-07 23:47 51.93077 4.37545 1208 ft 159 kts 58°
2026-05-07 23:47 51.93686 4.39003 913 ft 157 kts 58°
2026-05-07 23:47 51.94269 4.40497 572 ft 156 kts 59°
2026-05-07 23:48 51.94890 4.42050 277 ft 171 kts 57°
2026-05-07 23:48 51.95476 4.43503 6 ft 136 kts 56°
2026-05-07 23:48 51.95801 4.44298 5 ft 44 kts 57°
2026-05-07 23:48 51.95914 4.44597 5 ft 21 kts 76°
2026-05-07 23:49 51.95837 4.44752 4 ft 18 kts 152°
2026-05-07 23:49 51.95749 4.44665 4 ft 17 kts 237°
2026-05-07 23:49 51.95705 4.44555 4 ft 18 kts 237°
2026-05-07 23:49 51.95609 4.44317 4 ft 20 kts 237°
2026-05-07 23:50 51.95533 4.44127 4 ft 21 kts 237°
2026-05-07 23:50 51.95455 4.43929 5 ft 21 kts 237°
2026-05-07 23:50 51.95375 4.43733 4 ft 21 kts 237°
2026-05-07 23:50 51.95323 4.43603 4 ft 21 kts 237°
2026-05-07 23:51 51.95252 4.43424 4 ft 14 kts 237°
2026-05-07 23:51 51.95211 4.43383 4 ft 7 kts 165°
2026-05-07 23:51 51.95158 4.43430 4 ft 9 kts 171°
2026-05-07 23:51 51.95146 4.43372 4 ft 7 kts 310°
2026-05-07 23:52 51.95165 4.43350 4 ft 0 kts 326°